Regional Weather Roundup
Issued by NWS

Home | Current Version | Previous Version | Text Only | Print | Product List | Glossary On
Versions: 1 2 3 4 5 6 7 8 9 10 11 12 13 14 15 16 17 18 19 20 21 22 23 24 25 26 27 28 29 30 31 32 33 34 35 36 37 38 39 40 41 42 43 44 45 46 47 48 49 50
000
ASUS44 KFWD 231615
RWRTX
NORTH TEXAS HOURLY WEATHER ROUNDUP
NATIONAL WEATHER SERVICE FORT WORTH TX
1000 AM CST SUN NOV 23 2014

NOTE: "FAIR" INDICATES FEW OR NO CLOUDS BELOW 12,000 FEET WITH NO
SIGNIFICANT WEATHER AND/OR OBSTRUCTIONS TO VISIBILITY.

TXZ118-119-231700-
DALLAS/FORT WORTH METROPLEX

CITY           SKY/WX    TMP DP  RH WIND       PRES   REMARKS
DFW AIRPORT    MOSUNNY   62  53  72 S17       29.51F
DALLAS LOVE    MOSUNNY   64  57  78 S10       29.52F
FTW MEACHAM    SUNNY     63  53  70 S10       29.51F
DAL-EXECUTIVE  SUNNY     65  55  70 S10G17    29.52F
FTW-ALLIANCE   MOSUNNY   62  53  72 S12G21    29.50F
FTW-SPINKS     SUNNY     63  54  72 S127      29.55F
ARLINGTON      SUNNY     63  54  72 S13G18    29.53F
GRAND PRAIRIE  SUNNY     61  55  82 S15       29.55F
ADDISON        SUNNY     61  57  88 S12       29.53F
MESQUITE       PTSUNNY   59  57  94 S14       29.55F
LANCASTER      SUNNY     59  56  88 S16       29.55F
$$

TXZ091>094-102>105-117-120-121-131>134-231700-
NORTH CENTRAL TEXAS

CITY           SKY/WX    TMP DP  RH WIND       PRES   REMARKS
SHRMAN/DENISON SUNNY     63  59  88 S18G30    29.48F
GAINESVILLE    SUNNY     59  54  81 S16       29.50F
BOWIE          SUNNY     60  53  78 S10       29.48F
BRIDGEPORT     SUNNY     58  58 100 SW10G17   29.50F
DECATUR        SUNNY     60  53  77 SW10      29.49F
DENTON         SUNNY     61  53  75 S14       29.50F
MCKINNEY       MOSUNNY   62  57  83 S17       29.50F
GREENVILLE     CLOUDY    59  55  88 S13       29.54F
ROCKWALL       CLOUDY    58  58  99 S17G25    29.52F
TERRELL        CLOUDY    61  58  90 S12G20    29.55F
WAXAHACHIE     SUNNY     62  56  82 S14       29.55F
CLEBURNE       SUNNY     61  55  82 SW9       29.57S
GRANBURY       SUNNY     63  50  61 SW14      29.56F
$$

TXZ083>090-098>101-113>116-127>130-139>142-154-155-231700-
WESTERN NORTH TEXAS

CITY           SKY/WX    TMP DP  RH WIND       PRES   REMARKS
WICHITA FALLS  SUNNY     59  46  62 SW20      29.44S
WF-KICKAPOO    SUNNY     60  45  57 SW8G16    29.46S
VERNON         SUNNY     57  45  62 SW14      29.45F
ABILENE        SUNNY     63  41  44 SW9       29.59S
ABILENE-DYESS  SUNNY     64  36  35 W18G24    29.57S
BRECKENRIDGE   SUNNY     63  44  49 SW12G21   29.55R HAZE
GRAHAM         SUNNY     60  48  64 SW9       29.51S
MINERAL WELLS  SUNNY    N/A N/A N/A SW10      29.51F
STEPHENVILLE   SUNNY     60  47  62 SW13G21   29.60F
COMANCHE       SUNNY     60  47  61 SW17      29.60S
BROWNWOOD      SUNNY     59  45  58 W7        29.63S
COLEMAN        SUNNY     60  43  53 W13G25    29.63R
BRADY          SUNNY     64  43  45 SW16      29.65S
$$

TXZ143>147-156>162-174-175-231700-
CENTRAL TEXAS

CITY           SKY/WX    TMP DP  RH WIND       PRES   REMARKS
WACO           SUNNY     63  55  75 SW14      29.59F
WACO-TSTC      SUNNY     64  55  72 SW12G18   29.59F
WACO-MCGREGOR  SUNNY     64  55  72 SW10G17   29.60F
HILLSBORO      SUNNY     62  56  83 S14       29.57F
CORSICANA      MOSUNNY   62  58  86 SW13      29.59F
MEXIA          MOSUNNY   62  58  85 SW15      29.59F
HEARNE         SUNNY     66  57  73 SW7       29.64F
CAMERON        SUNNY     65  56  73 SW10      29.63F
TEMPLE         SUNNY     63  52  67 SW12      29.61F
KILLEEN        SUNNY     64  51  64 SW13      29.62F
KILLEEN-SKYLRK SUNNY     64  52  63 SW12      29.61S
FORT HOOD      SUNNY     68  49  50 SW13      29.61F
GATESVILLE     SUNNY     64  50  59 W12       29.62F
HAMILTON       SUNNY     64  47  53 W18       29.61F
LAMPASAS       SUNNY     64  50  60 W12       29.62F
$$

TXZ095>097-106>112-122>126-135>138-148>153-164>167-231700-
EAST TEXAS

CITY           SKY/WX    TMP DP  RH WIND       PRES   REMARKS
PARIS          CLOUDY    61  57  88 SW14      29.53F
SULPHUR SPRNGS CLOUDY    61  60  96 SW12      29.56F
MOUNT PLEASANT CLOUDY    63  61  94 S10       29.56F
MINEOLA        CLOUDY    61  61 100 SW7       29.58S
TYLER          CLOUDY    61  58  90 SW12      29.58R
LONGVIEW       CLOUDY    64  59  83 SW14G22   29.55F
MARSHALL       CLOUDY    62  59  91 SW10G16   29.57F
ATHENS         CLOUDY    59  55  88 SW3       29.58F
PALESTINE      CLOUDY    60  59  97 SW9       29.61F FOG
JACKSONVILLE   CLOUDY    61  58  91 SW12G17   29.61F
HENDERSON      PTSUNNY   64  61  89 SW8       29.58F
NACOGDOCHES    CLOUDY    61  57  88 W8        29.60F
LUFKIN         CLOUDY    64  60  87 W9        29.61F
$$

SUPPLEMENTAL OBSERVATIONS (CENTRAL)

CITY           SKY/WX    TMP DP  RH WIND       PRES   REMARKS
LAKE TEXOMA      N/A     63  55  77 S10         N/A
CADDO GRASSLND   N/A     63  57  82 S14         N/A
PAT MAYSE LAKE   N/A     59  55  88 S14         N/A
GREENVILLE       N/A     61  57  88 SW12        N/A
CEDAR HILL       N/A     64  54  68 S9          N/A
MCGREGOR         N/A     64  52  63 W15         N/A
$$

SUPPLEMENTAL OBSERVATIONS (WEST)

CITY           SKY/WX    TMP DP  RH WIND       PRES   REMARKS
MILLERS CREEK    N/A     55  52  88 SW14        N/A
LBJ GRASSLAND    N/A     63  54  72 S8          N/A
HAMBY            N/A     63  41  45 SW14        N/A
IVIE RESERVOIR   N/A     64  39  39 W16G22      N/A
COLORADO BEND    N/A     66  46  48 W12         N/A
$$

SUPPLEMENTAL OBSERVATIONS (EAST)

CITY           SKY/WX    TMP DP  RH WIND       PRES   REMARKS
CLARKSVILLE      N/A     63  59  88 S9          N/A
TEXARKANA        N/A    N/A N/A N/A S1          N/A
LINDEN           N/A     63  59  88 SW3         N/A
CADDO LAKE       N/A    N/A N/A N/A SW3         N/A
GILMER           N/A     63  57  82 SW8         N/A
HENDERSON        N/A     64  59  82 SW13G22     N/A
LUFKIN           N/A     63  57  82 MISG        N/A
N SABINE NF      N/A     64  61  88 MISG        N/A
S SABINE NF      N/A     63  59  88 SW5         N/A
$$

SUPPLEMENTAL OBSERVATIONS ARE A COLLECTION OF AUTOMATED INSTRUMENTS
THAT ARE MAINTAINED BY A VARIETY OF FEDERAL AND STATE AGENCIES.
CERTAIN ELEMENTS...SUCH AS HUMIDITY VALUES AND SUSTAINED WIND
SPEEDS...MAY BE APPROXIMATED.



USA.gov is the U.S. government's official web portal to all federal, state and local government web resources and services.